Time,TemperatureF,DewpointF,PressureIn,WindDirection,WindDirectionDegrees,WindSpeedMPH,WindSpeedGustMPH,Humidity,HourlyPrecipIn,Conditions,Clouds,dailyrainin,SoftwareType,DateUTC
2013-04-15 00:15:00,28.9,21.7,29.99,West,262,0.0,0.0,74,0.00,,,0.00,Wunderground v.1.12,2013-04-15 04:15:00,
2013-04-15 00:45:00,28.5,20.9,30.00,West,262,0.0,0.0,73,0.00,,,0.00,Wunderground v.1.12,2013-04-15 04:45:00,
2013-04-15 01:15:00,27.9,20.7,30.00,West,263,0.0,0.0,74,0.00,,,0.00,Wunderground v.1.12,2013-04-15 05:15:00,
2013-04-15 01:45:00,27.8,20.9,29.99,West,262,0.0,0.0,75,0.00,,,0.00,Wunderground v.1.12,2013-04-15 05:45:00,
2013-04-15 02:15:00,27.4,20.5,29.99,West,262,0.0,0.0,75,0.00,,,0.00,Wunderground v.1.12,2013-04-15 06:15:00,
2013-04-15 02:45:00,26.5,16.7,29.99,West,262,0.0,0.0,66,0.00,,,0.00,Wunderground v.1.12,2013-04-15 06:45:00,
2013-04-15 03:15:00,26.3,16.1,30.00,N/A,-737280,0.0,0.0,65,0.00,,,0.00,Wunderground v.1.12,2013-04-15 07:15:00,
2013-04-15 03:45:00,26.1,15.9,30.00,West,262,0.0,0.0,65,0.00,,,0.00,Wunderground v.1.12,2013-04-15 07:45:00,
2013-04-15 04:15:00,25.7,16.3,30.01,West,263,0.0,0.0,67,0.00,,,0.00,Wunderground v.1.12,2013-04-15 08:15:00,
2013-04-15 04:45:00,26.9,17.4,30.01,West,262,0.0,0.0,67,0.00,,,0.00,Wunderground v.1.12,2013-04-15 08:45:00,
2013-04-15 05:15:00,28.3,18.4,30.03,West,262,0.0,0.0,66,0.00,,,0.00,Wunderground v.1.12,2013-04-15 09:15:00,
2013-04-15 05:45:00,29.5,19.5,30.04,West,262,0.0,0.0,66,0.00,,,0.00,Wunderground v.1.12,2013-04-15 09:45:00,
2013-04-15 06:15:00,29.8,19.5,30.04,West,262,0.0,0.0,65,0.00,,,0.00,Wunderground v.1.12,2013-04-15 10:15:00,
2013-04-15 06:45:00,30.1,19.7,30.03,West,261,0.0,0.0,65,0.00,,,0.00,Wunderground v.1.12,2013-04-15 10:45:00,
2013-04-15 07:15:00,32.3,21.1,30.05,SE,125,3.0,3.0,63,0.00,,,0.00,Wunderground v.1.12,2013-04-15 11:15:00,
2013-04-15 07:45:00,34.5,22.8,30.06,SE,125,0.0,0.0,62,0.00,,,0.00,Wunderground v.1.12,2013-04-15 11:45:00,
2013-04-15 08:15:00,36.3,23.3,30.05,SE,124,3.0,3.0,59,0.00,,,0.00,Wunderground v.1.12,2013-04-15 12:15:00,
2013-04-15 08:45:00,37.0,23.6,30.06,SE,124,1.0,1.0,58,0.00,,,0.00,Wunderground v.1.12,2013-04-15 12:45:00,
2013-04-15 09:15:00,39.5,25.1,30.06,SE,125,0.0,0.0,56,0.00,,,0.00,Wunderground v.1.12,2013-04-15 13:15:00,
2013-04-15 09:45:00,43.4,27.8,30.05,ESE,120,4.0,4.0,54,0.00,,,0.00,Wunderground v.1.12,2013-04-15 13:45:00,
2013-04-15 10:16:00,46.1,28.5,30.03,ESE,116,0.0,0.0,50,0.00,,,0.00,Wunderground v.1.12,2013-04-15 14:16:00,
2013-04-15 10:45:00,50.1,30.6,30.01,ESE,108,4.0,4.0,47,0.00,,,0.00,Wunderground v.1.12,2013-04-15 14:45:00,
2013-04-15 11:15:00,52.3,31.6,30.01,ESE,117,4.0,4.0,45,0.00,,,0.00,Wunderground v.1.12,2013-04-15 15:15:00,
2013-04-15 11:45:00,54.3,31.1,30.00,East,99,0.0,0.0,41,0.00,,,0.00,Wunderground v.1.12,2013-04-15 15:45:00,
2013-04-15 12:15:00,55.6,32.2,29.99,ESE,111,4.0,4.0,41,0.00,,,0.00,Wunderground v.1.12,2013-04-15 16:15:00,
2013-04-15 13:15:00,58.5,34.9,29.94,SE,127,2.0,2.0,41,0.00,,,0.00,Wunderground v.1.12,2013-04-15 17:15:00,
2013-04-15 13:45:00,59.9,34.9,29.92,East,100,4.0,4.0,39,0.00,,,0.00,Wunderground v.1.12,2013-04-15 17:45:00,
2013-04-15 14:15:00,62.2,36.9,29.92,SE,128,6.0,6.0,39,0.00,,,0.00,Wunderground v.1.12,2013-04-15 18:15:00,
2013-04-15 14:45:00,62.8,36.8,29.90,ESE,114,4.0,4.0,38,0.00,,,0.00,Wunderground v.1.12,2013-04-15 18:45:00,
2013-04-15 15:15:00,63.7,35.5,29.90,East,95,0.0,0.0,35,0.00,,,0.00,Wunderground v.1.12,2013-04-15 19:15:00,
2013-04-15 16:15:00,63.2,35.8,29.90,NE,40,0.0,0.0,36,0.00,,,0.00,Wunderground v.1.12,2013-04-15 20:15:00,
2013-04-15 16:45:00,61.5,35.0,29.91,NE,41,5.0,5.0,37,0.00,,,0.00,Wunderground v.1.12,2013-04-15 20:45:00,
2013-04-15 17:15:00,60.9,35.8,29.89,NE,48,3.0,3.0,39,0.00,,,0.00,Wunderground v.1.12,2013-04-15 21:15:00,
2013-04-15 17:45:00,59.1,34.8,29.87,ENE,66,0.0,0.0,40,0.00,,,0.00,Wunderground v.1.12,2013-04-15 21:45:00,
2013-04-15 18:15:00,58.1,34.5,29.87,NE,38,0.0,0.0,41,0.00,,,0.00,Wunderground v.1.12,2013-04-15 22:15:00,
2013-04-15 18:45:00,56.2,35.7,29.86,ENE,71,0.0,0.0,46,0.00,,,0.00,Wunderground v.1.12,2013-04-15 22:45:00,
2013-04-15 19:15:00,54.3,35.5,29.86,ENE,67,0.0,0.0,49,0.00,,,0.00,Wunderground v.1.12,2013-04-15 23:15:00,
2013-04-15 19:45:00,52.4,33.8,29.87,ENE,70,0.0,0.0,49,0.00,,,0.00,Wunderground v.1.12,2013-04-15 23:45:00,
2013-04-15 20:15:00,51.1,34.1,29.86,ENE,70,0.0,0.0,52,0.00,,,0.00,Wunderground v.1.12,2013-04-16 00:15:00,
2013-04-15 20:45:00,49.7,33.2,29.86,ENE,71,0.0,0.0,53,0.00,,,0.00,Wunderground v.1.12,2013-04-16 00:45:00,
2013-04-15 21:15:00,48.7,32.8,29.86,ENE,71,0.0,0.0,54,0.00,,,0.00,Wunderground v.1.12,2013-04-16 01:15:00,
2013-04-15 21:45:00,47.9,32.5,29.87,ENE,71,0.0,0.0,55,0.00,,,0.00,Wunderground v.1.12,2013-04-16 01:45:00,
2013-04-15 22:15:00,47.2,32.7,29.86,ENE,71,0.0,0.0,57,0.00,,,0.00,Wunderground v.1.12,2013-04-16 02:15:00,
2013-04-15 22:45:00,48.2,33.7,29.85,ENE,71,0.0,0.0,57,0.00,,,0.00,Wunderground v.1.12,2013-04-16 02:45:00,
2013-04-15 23:15:00,49.0,34.0,29.84,ENE,73,0.0,0.0,56,0.00,,,0.00,Wunderground v.1.12,2013-04-16 03:15:00,
2013-04-15 23:45:00,50.9,35.3,29.84,South,186,3.0,3.0,55,0.00,,,0.00,Wunderground v.1.12,2013-04-16 03:45:00,